KINEIS-5E

Last updated on Fri Sep 11 2026 00:02:53 GMT+0000 (Coordinated Universal Time)

1 62083U 24219C 26253.60035502 .00000378 00000+0 67523-4 0 9990 2 62083 97.9099 50.1938 0006283 5.8113 354.3167 14.72284231 96331
UTC large
Height (km)
Speed (km/s)
/
Latitude / Longitude
Inclination (degrees)
Orbital Period (minutes)
Azimuth
Elevation
Range (km)
Doppler Factor

Next 0 passes for location: London (51.5072 / 0.1276)

No passes found over London.
KINEIS-5E